CZ-7A R/B (50323 NORAD) Tracking and Keplerian Element Data

This shows tracking and keplerian element data for the satellite.

Feedback or suggestion? Click here.




ElementValue
Catalog50323
NameCZ-7A R/B
Epoch Orbit40
Epoch Day6.02902079
Epoch Year2022
RAAN255.0607
Inclination19.4573
Eccentricity0.3589552
Argument of Perigee198.6546
Mean Anonmoly336.7284
Mean Motion8.55003241
Decay Rate2.834E-05
L11 50323U 21129C 22006.02902079 .00002834 -17861-4 00000+0 0 9991
L22 50323 19.4573 255.0607 3589552 198.6546 336.7284 8.55003241 400

Live tracking and technical data element details for CZ-7A R/B (NORAD 50323). CZ-7A R/B can be tracked NOW for your location showing map with azimuth and elevation plus other details from your city location.

Track the satellite on the map from your city or location and see movement details for azimuth, elevation, latitude, longitude, range, height, and movement on the map or in text.







IsCatalogInMostPopularTable: catalog: 50323, numindb: 21
Update: records affected: 1



GetName: 50323 CZ-7A R/B

Hit Count: updated at: Mon, 23 May 2022 20:10:10 GMT